Regional Weather Roundup
Issued by NWS

Home | Current Version | Previous Version | Graphics & Text | Print | Product List | Glossary Off
Versions: 1 2 3 4 5 6 7 8 9 10 11 12 13 14 15 16 17 18 19 20 21 22 23 24 25 26 27 28 29 30 31 32 33 34 35 36 37 38 39 40 41 42 43 44 45 46 47 48 49 50

000
ASUS43 KMPX 221901
RWRMN
WEATHER ROUNDUP FOR MINNESOTA
NATIONAL WEATHER SERVICE TWIN CITIES/CHANHASSEN MN
100 PM CST SUN JAN 22 2017


NOTE: "FAIR" INDICATES FEW OR NO CLOUDS BELOW 12,000 FEET WITH NO
SIGNIFICANT WEATHER AND/OR OBSTRUCTIONS TO VISIBILITY. N/A MEANS
CURRENT SKY AND/OR WEATHER CONDITIONS ARE NOT AVAILABLE.

MNZ060>063-068>070-222000-
   Twin Cities Metro

CITY           SKY/WX    TMP DP  RH WIND       PRES   REMARKS
TWIN CITIES    CLOUDY    39  35  86 W8        29.71S
ST PAUL        CLOUDY    39  37  92 NW8       29.72S
CRYSTAL        CLOUDY    39  34  82 W7        29.70F
BLAINE         CLOUDY    39  39 100 NW6       29.70F
LAKEVILLE      CLOUDY    36  36 100 W7        29.71S
EDEN PRAIRIE   CLOUDY    38  35  89 NW7       29.71S
SOUTH ST PAUL  CLOUDY    39  37  91 NW7       29.70F
LAKE ELMO      CLOUDY    37  36  93 NW6       29.71S
$$
MNZ001>005-007-008-013>017-022>024-027-028-222000-
   Northwest Minnesota

CITY           SKY/WX    TMP DP  RH WIND       PRES   REMARKS
BEMIDJI        CLOUDY    34  34 100 CALM      29.70S
HALLOCK        FOG       34  34 100 CALM      29.71F VSB<1/4
ROSEAU         CLOUDY    36  30  80 CALM      29.71S
WARROAD        CLOUDY    36  30  80 CALM      29.71S
THIEF RVR FALL FOG       34  32  92 W8        29.73S VSB 1/4 WCI  27
CROOKSTON      CLOUDY    32  32 100 NW5       29.74F FOG     WCI  27
FOSSTON        FOG       34  34 100 W3        29.72F VSB<1/4
DETROIT LAKES  FOG       34  34 100 NW9       29.73S VSB 1/4 WCI  26
MOORHEAD       CLOUDY    32  30  93 W5        29.76S FOG     WCI  27
PARK RAPIDS    CLOUDY    36  32  85 W7        29.70S
MAHNOMEN       FOG       32  32  99 W7        29.72S VSB 1/4 WCI  26
$$
MNZ006-009>011-018-025>026-222000-
   North Central Minnesota

CITY           SKY/WX    TMP DP  RH WIND       PRES   REMARKS
BAUDETTE       CLOUDY    36  33  89 CALM      29.70S
FLAG ISLAND    CLOUDY    34  34 100 SE5       29.70S WCI  30
INTL FALLS     CLOUDY    37  34  89 CALM      29.69S
WASKISH        CLOUDY    36  34  93 W3        29.70F FOG
BIG FORK       CLOUDY    37  37 100 CALM      29.68F
LONGVILLE      CLOUDY    36  36 100 W3        29.69S
GRAND RAPIDS   FOG       37  36  96 NW5       29.70F VSB 3/4
CRANE LAKE     CLOUDY    34  34 100 CALM      29.71S
ORR            LGT SNOW  34  30  86 CALM      29.66F
COOK           LGT SNOW  32  32 100 CALM      29.68F VSB 3/4
WALKER         CLOUDY    34  34 100 NW5       29.70F WCI  30
$$
MNZ012-019>021-037-222000-
   Northeast Minnesota

CITY           SKY/WX    TMP DP  RH WIND       PRES   REMARKS
DULUTH         LGT RAIN  36  35  96 NW6       29.65F
ELY            CLOUDY    36  34  93 CALM      29.66F FOG
HIBBING        CLOUDY    34  33  96 NW5       29.67F WCI  30
EVELETH        DRIZZLE   35  33  94 NW5       29.68S WCI  31
DULUTH HARBOR  CLOUDY    37  36  93 CALM      29.69F
TWO HARBORS    CLOUDY    39  34  81 CALM      29.65S HAZE
SILVER BAY     CLOUDY    37  37 100 CALM      29.64F FOG
GRAND MARAIS     N/A     39  34  82 CALM      29.67S
G MARAIS ARPRT CLOUDY    34  28  80 NW3       29.65R
$$
MNZ029>031-032-039>041-046>048-054>057-064-222000-
   West Central Minnesota

CITY           SKY/WX    TMP DP  RH WIND       PRES   REMARKS
FERGUS FALLS   FOG       32  32 100 W9        29.79S VSB 1/4 WCI  24
WHEATON        CLOUDY    36  36 100 W9        29.78S FOG
MORRIS         CLOUDY    32  32 100 NW13      29.74F FOG     WCI  22
ALEXANDRIA     FOG       33  33 100 W9        29.73S VSB 1/4 WCI  25
ELBOW LAKE     FOG       31  31 100 NW9       29.75S VSB 3/4 WCI  23
WADENA         CLOUDY    36  36 100 NW5       29.71S FOG
GLENWOOD       FOG       34  34 100 W13       29.73S VSB 1/4 WCI  25
APPLETON       CLOUDY    36  32  87 W10       29.76S
ORTONVILLE     CLOUDY    30  28  93 NW8       29.76F FOG     WCI  23
MADISON        CLOUDY    36  36 100 NW13      29.77S FOG
WILLMAR        FOG       36  36 100 NW13      29.75S VSB 1/4
$$
MNZ033>034-036-042>043-049>051-058-059-222000-
   Central Minnesota

CITY           SKY/WX    TMP DP  RH WIND       PRES   REMARKS
ST CLOUD       CLOUDY    38  36  92 NW7       29.71S
SAUK CENTRE    FOG       34  34 100 W6        29.72S VSB 3/4 WCI  29
PAYNESVILLE    CLOUDY    35  35 100 NW6       29.73S FOG     WCI  30
AITKIN         CLOUDY    39  34  81 NW3       29.68F
PINE RIVER     CLOUDY    36  36 100 NW5       29.74S
BRAINERD       CLOUDY    36  35  96 NW5       29.70F FOG
STAPLES        FOG       36  36 100 W5        29.71F VSB 3/4
LONG PRAIRIE   FOG       34  34 100 W5        29.72S VSB 1   WCI  30
LITTLE FALLS   CLOUDY    36  34  93 NW5       29.71F
LITCHFIELD     CLOUDY    37  37 100 W5        29.73S FOG
BUFFALO        CLOUDY    37  37  97 W3        29.72S
MAPLE LAKE     CLOUDY    38  38 100 CALM      29.72F FOG
HUTCHINSON     CLOUDY    36  37 100 W6        29.74S FOG
$$
MNZ037-044-045-052-053-222000-
   East Central Minnesota

CITY           SKY/WX    TMP DP  RH WIND       PRES   REMARKS
PRINCETON      CLOUDY    39  37  93 W3        29.71S
MORA           CLOUDY    36  36 100 NW5       29.71F
CAMBRIDGE      CLOUDY    39  39 100 W3        29.69S
RUSH CITY      CLOUDY    37  36  93 W3        29.70F
MOOSE LAKE     CLOUDY    37  34  87 NW5       29.66F
HINCKLEY       CLOUDY    37  36  93 CALM      29.68F
CLOQUET        CLOUDY    36  36 100 W7        29.67S FOG
MCGREGOR       CLOUDY    36  36 100 NW6       29.68F
$$
MNZ071>073-080-081-089-090-097-098-222000-
   Southwest Minnesota

CITY           SKY/WX    TMP DP  RH WIND       PRES   REMARKS
MONTEVIDEO     CLOUDY    36  36 100 NW9       29.78R
GRANITE FALLS  CLOUDY    35  35 100 W9        29.77S FOG     WCI  28
CANBY          CLOUDY    34  32  93 NW13      29.78S WCI  25
MARSHALL       CLOUDY    36  33  89 NW12      29.76S
REDWOOD FALLS  CLOUDY    35  34  96 NW7       29.74F FOG     WCI  29
OLIVIA         FOG       34  34 100 NW10      29.74S VSB 1   WCI  26
PIPESTONE      FOG       32  30  93 NW13      29.76S VSB 1/2 WCI  22
WINDOM         CLOUDY    36  36 100 NW10      29.74R
WORTHINGTON    CLOUDY    37  35  92 NW12      29.75S
JACKSON        CLOUDY    34  34 100 NW10      29.74S FOG     WCI  26
TRACY          CLOUDY    37  36  97 NW9       29.75S FOG
SLAYTON        CLOUDY    36  34  94 NW10      29.75S
$$
MNZ065>067-074>077-082>085-091>093-222000-
   South Central Minnesota

CITY           SKY/WX    TMP DP  RH WIND       PRES   REMARKS
MANKATO        PTSUNNY   36  35  96 NW8       29.73S FOG
NEW ULM        CLOUDY    36  36 100 NW8       29.74S FOG
ST JAMES       CLOUDY    37  37 100 NW9       29.75S
FAIRMONT       CLOUDY    37  36  96 NW8       29.74S FOG
GLENCOE        CLOUDY    37  37 100 W5        29.72S
OWATONNA       FOG       36  34  93 W6        29.72S VSB 1/4
WASECA         FOG       34  34 100 NW8       29.73F VSB 1/2 WCI  27
ALBERT LEA     FOG       36  36 100 NW6       29.71R VSB 1
$$
MNZ078>079-086>088-094>096-222000-
   Southeast Minnesota

CITY           SKY/WX    TMP DP  RH WIND       PRES   REMARKS
ROCHESTER      CLOUDY    35  35 100 NW10      29.69R FOG     WCI  27
RED WING       CLOUDY    37  36  93 W5        29.70S
STANTON        CLOUDY    37  36  95 W3        29.70S FOG
DODGE CENTER   FOG       36  34  93 CALM      29.69S VSB 3/4
WINONA         CLOUDY    36  36 100 NW6       29.69F
AUSTIN         CLOUDY    36  36 100 NW9       29.69F FOG
PRESTON        CLOUDY    34  33  97 NW8       29.67F FOG     WCI  27
$$
ABBREVIATIONS USED IN REMARKS
   TC - TEMPERATURES IN CELSIUS
  WCI - WIND CHILL INDEX
   HX - HEAT INDEX
  VSB - VISIBILITY
$$




USA.gov is the U.S. government's official web portal to all federal, state and local government web resources and services.